Minot, ND

9:16 PM CDT on June 23, 2017 (GMT -0500)
Minot International

Weather History for KMOT - December, 2013

Change the Weather History Date:

Tuesday, December 17, 2013

  Actual Average Record
Temperature  
Mean Temperature 21 °F 15 °F  
Max Temperature 26 °F 23 °F 56 °F (1997)
Min Temperature 15 °F 7 °F -32 °F (1906)
Degree Days  
Heating Degree Days 44 50  
Month to date heating degree days 1043 813  
Since 1 July heating degree days 3098 2871  
Moisture  
Dew Point 13 °F    
Average Humidity 74    
Maximum Humidity 88    
Minimum Humidity 60    
Precipitation  
Precipitation T in 0.01 in 1.11 in (1967)
Month to date precipitation 0.15 0.20  
Year to date precipitation 24.96 17.01  
Sea Level Pressure  
Sea Level Pressure 30.03 in    
Wind  
Wind Speed 12 mph (SW)    
Max Wind Speed 31 mph    
Max Gust Speed 37 mph    
Visibility 10 miles    
Events      
T = Trace of Precipitation, MM = Missing Value Source: NWS Daily Summary

Daily Weather History Graph

Daily Weather History Graph

Search for Another Location

Airport or City:

Trip Planner

Search our weather history database for the weather conditions in past years. The results will help you decide how hot, cold, wet, or windy it might be!

Date:

Astronomy

Dec. 17, 2013 Rise Set
Actual Time 8:31 AM CST 4:51 PM CST
Civil Twilight 7:54 AM CST 5:28 PM CST
Nautical Twilight 7:14 AM CST 6:08 PM CST
Astronomical Twilight 6:36 AM CST 6:46 PM CST
Moon 5:38 PM CST (12/17) 8:24 AM CST (12/17)
Length of Visible Light 9h 34m
Length of Day
8h 20m
Full, 100% of the Moon is Illuminated
Dec 17
Full
Dec 25
Last Quarter
Jan 1
New
Jan 7
First Quarter
Jan 15
Full

Hourly Weather History & Observations

Time (CST) Temp. Windchill Dew Point Humidity Pressure Visibility Wind Dir Wind Speed Gust Speed Precip Events Conditions
12:54 AM 25.0 °F 10.2 °F 16.0 °F 69% 30.05 in 10.0 mi West 21.9 mph 28.8 mph 0.00 in   Clear
1:54 AM 25.0 °F 10.9 °F 15.1 °F 66% 30.07 in 10.0 mi West 19.6 mph 28.8 mph N/A   Partly Cloudy
2:54 AM 23.0 °F 7.6 °F 14.0 °F 68% 30.10 in 10.0 mi West 21.9 mph - N/A   Partly Cloudy
3:54 AM 23.0 °F 8.0 °F 14.0 °F 68% 30.12 in 10.0 mi West 20.7 mph 28.8 mph N/A   Clear
4:54 AM 21.9 °F 6.9 °F 12.9 °F 68% 30.14 in 10.0 mi West 19.6 mph - 0.00 in   Clear
5:54 AM 21.0 °F 8.1 °F 12.0 °F 68% 30.15 in 10.0 mi West 13.8 mph - N/A   Clear
6:54 AM 19.0 °F 4.5 °F 10.9 °F 71% 30.16 in 10.0 mi West 16.1 mph - N/A   Clear
7:54 AM 18.0 °F 4.8 °F 10.0 °F 71% 30.16 in 10.0 mi West 12.7 mph - N/A   Clear
8:54 AM 17.1 °F 3.0 °F 9.0 °F 71% 30.17 in 10.0 mi West 13.8 mph - N/A   Clear
9:54 AM 19.0 °F 6.8 °F 10.0 °F 68% 30.18 in 10.0 mi WSW 11.5 mph - N/A   Clear
10:44 AM 19.9 °F 6.2 °F 10.9 °F 68% 30.09 in 4.0 mi West 15.0 mph - N/A   Haze
10:54 AM 19.9 °F 6.7 °F 12.0 °F 71% 30.17 in 8.0 mi West 13.8 mph - N/A   Clear
11:54 AM 21.9 °F 12.5 °F 12.0 °F 66% 30.14 in 10.0 mi West 8.1 mph - N/A   Clear
12:54 PM 24.1 °F 15.2 °F 12.9 °F 62% 30.11 in 10.0 mi WSW 8.1 mph - N/A   Overcast
1:54 PM 24.1 °F 18.2 °F 14.0 °F 65% 30.07 in 10.0 mi SSW 4.6 mph - N/A   Clear
2:54 PM 23.0 °F 15.8 °F 15.1 °F 72% 30.04 in 10.0 mi SSW 5.8 mph - N/A   Clear
3:54 PM 21.9 °F 14.5 °F 15.1 °F 75% 30.02 in 10.0 mi South 5.8 mph - N/A   Clear
4:54 PM 18.0 °F 6.9 °F 12.0 °F 78% 30.00 in 10.0 mi ESE 9.2 mph - N/A   Clear
5:54 PM 19.0 °F 8.2 °F 12.9 °F 77% 29.96 in 10.0 mi SE 9.2 mph - N/A   Partly Cloudy
6:54 PM 17.1 °F 6.6 °F 12.0 °F 81% 29.93 in 10.0 mi SE 8.1 mph - N/A   Clear
7:54 PM 17.1 °F 3.6 °F 12.0 °F 81% 29.88 in 10.0 mi SE 12.7 mph - N/A   Clear
8:54 PM 16.0 °F 4.4 °F 12.0 °F 84% 29.83 in 10.0 mi SE 9.2 mph - N/A   Clear
9:54 PM 21.0 °F 9.9 °F 14.0 °F 74% 29.75 in 10.0 mi SSE 10.4 mph - N/A   Clear
10:54 PM 21.9 °F 14.5 °F 15.1 °F 75% 29.73 in 10.0 mi SSE 5.8 mph - N/A   Clear
11:54 PM 24.1 °F 13.1 °F 17.1 °F 75% 29.68 in 10.0 mi South 11.5 mph - N/A   Clear